Probability
0 0 0 0 1 2 3 2 1 0 0 0 1 2 2 1 0 0 0 0 0 0 0 0 0 0 0 0 0 0 0 0 0 0 0 0 0 0 0 1 2 3 3
0 0 0 0 0 1 2 2 1 0 0 0 0 1 2 1 0 0 0 0 0 0 0 0 0 0 0 0 0 0 0 0 0 0 0 0 0 0 0 0 1 3 3
0 0 0 0 0 1 2 1 0 0 0 0 0 1 2 1 0 0 0 0 0 0 0 0 0 0 0 0 0 0 0 0 0 0 0 0 0 0 0 0 1 2 3
0 0 0 0 0 1 2 1 0 0 0 0 0 1 2 1 0 0 0 0 0 0 0 0 0 0 0 0 0 0 0 0 0 0 0 0 0 0 0 0 1 2 3
0 0 0 0 0 1 1 1 0 0 0 0 0 1 1 1 0 0 0 0 0 0 0 0 0 0 0 0 0 0 0 0 0 0 0 0 0 0 0 0 1 2 3
0 0 0 0 0 0 0 0 0 0 0 0 0 0 1 1 0 0 0 0 0 0 0 0 0 0 0 0 0 0 0 0 0 0 0 0 0 0 0 0 0 1 2
0 0 0 0 0 0 0 0 0 0 0 0 0 0 0 1 0 0 0 0 0 0 0 0 0 0 0 0 0 0 0 0 0 0 0 0 0 0 0 0 0 1 2
0 0 0 0 0 0 0 0 0 0 0 0 0 0 0 0 0 0 0 0 0 0 0 0 0 0 0 0 0 0 0 0 0 0 0 0 0 0 0 0 0 0 1
0 0 0 0 0 0 0 0 0 0 0 0 0 0 0 0 0 0 0 0 0 0 0 0 0 0 0 0 0 0 0 0 0 0 0 0 0 0 0 0 0 0 0
0 0 0 0 0 0 0 0 0 0 0 0 0 0 0 0 0 0 0 0 0 0 0 0 0 0 0 0 0 0 0 0 0 0 0 0 0 0 0 0 0 0 0
0 0 0 0 0 0 0 0 0 0 0 0 0 0 0 0 0 0 0 0 0 0 0 0 0 0 0 0 0 0 0 0 0 0 0 0 0 0 0 0 0 0 0
0 0 0 0 0 0 0 0 0 0 0 0 0 0 0 0 0 0 0 0 0 0 0 0 0 0 0 0 0 0 0 0 0 0 0 0 0 0 0 0 0 0 0
0 0 0 0 0 0 0 0 0 0 0 0 0 0 0 0 0 0 0 0 0 0 0 0 0 0 0 0 0 0 0 0 0 0 0 0 0 0 0 0 0 0 0
0 0 0 0 0 0 0 0 0 0 0 0 0 0 0 0 0 0 0 0 0 0 0 0 0 0 0 0 0 0 0 0 0 0 0 0 0 0 0 0 0 0 0
0 0 0 0 0 0 0 0 0 0 0 0 0 0 0 0 0 0 0 0 0 0 0 1 1 1 0 0 0 0 0 0 0 0 0 0 0 0 0 0 0 0 0
0 0 0 0 0 0 0 0 0 0 0 0 0 0 0 0 0 0 0 0 0 0 0 1 2 1 0 0 0 0 0 0 0 0 0 0 0 0 0 0 0 0 0
0 0 0 0 0 0 0 0 0 0 0 0 0 0 0 0 0 0 0 0 0 0 0 1 2 1 0 0 0 0 0 0 0 0 0 0 0 0 0 0 0 0 0
0 0 0 0 0 0 0 0 0 0 0 0 0 0 0 0 0 0 0 0 0 0 0 1 2 1 0 0 0 0 0 0 0 0 0 0 0 0 0 0 0 0 0
0 0 0 0 0 0 0 0 0 0 0 0 0 0 0 0 0 0 0 0 0 0 0 1 2 1 0 0 0 0 0 0 0 0 0 0 0 0 0 0 0 0 0
0 0 0 0 0 0 0 0 0 0 0 0 0 0 0 0 0 0 0 0 0 0 1 2 2 1 0 0 0 0 0 0 0 0 0 0 0 0 0 0 0 0 0
0 0 0 0 0 0 0 0 0 0 0 0 0 0 0 0 0 0 0 0 0 0 1 2 1 0 0 0 0 0 0 0 0 0 0 0 0 0 0 0 0 0 0
0 0 0 0 0 0 0 0 0 0 0 0 0 0 0 0 0 0 0 0 0 1 2 2 1 0 0 0 0 0 0 0 0 0 0 0 0 0 0 0 0 0 0
0 0 0 0 0 0 0 0 0 0 0 0 0 0 0 0 0 0 0 0 1 2 3 2 1 0 0 0 0 0 0 0 0 0 0 0 0 0 0 0 0 0 0
0 0 0 0 0 0 0 0 0 0 0 0 0 0 0 0 0 0 0 0 1 2 2 1 0 0 0 0 0 0 0 0 0 0 0 0 0 0 0 0 0 0 0
0 0 0 0 0 0 0 0 0 0 0 0 0 0 0 0 0 0 0 0 1 2 1 0 0 0 0 0 0 0 0 0 0 0 0 0 0 0 0 0 0 0 0
0 0 0 0 0 0 0 0 0 0 0 0 0 0 0 0 0 0 0 0 1 1 0 0 0 0 0 0 0 0 0 0 0 0 0 0 0 0 0 0 0 0 0
Wind_Speed
3 3 3 4 4 3 3 3 3 2 2 1 1 1 1 1 1 1 2 2 2 3 3 3 3 3 3 3 4 3 3 2 2 2 2 2 2 2 1 2 2 2 2
3 3 3 3 3 2 2 2 2 1 1 1 1 0 1 1 1 1 1 2 2 3 3 4 3 3 3 4 4 4 2 1 2 2 2 1 1 1 0 1 1 2 2
2 2 2 3 3 2 2 1 1 1 1 1 1 1 1 1 1 0 0 1 2 3 3 4 4 3 3 4 4 4 3 3 2 1 3 3 2 0 1 0 1 1 1
2 2 3 3 3 3 2 1 1 1 1 0 0 1 1 1 1 1 1 1 2 3 3 4 4 4 3 4 4 3 3 4 3 1 1 1 3 3 1 1 0 1 1
3 2 3 3 3 2 2 1 1 1 1 1 1 1 1 1 1 1 2 2 2 2 3 3 3 4 3 4 4 3 3 4 4 3 1 1 1 2 3 2 2 1 1
3 3 2 2 2 3 2 2 2 2 2 2 2 1 2 2 2 2 2 2 2 2 3 4 3 3 3 4 4 4 4 4 4 3 2 2 2 3 2 2 2 2 2
3 3 3 3 3 3 3 3 2 2 2 2 2 2 1 2 3 3 3 2 2 2 4 4 4 4 3 4 4 4 5 5 5 5 3 3 3 2 2 3 2 2 1
3 3 3 3 4 4 3 3 2 2 3 3 3 3 2 1 2 2 3 3 3 3 4 4 5 5 5 4 4 3 4 4 5 5 4 3 3 3 3 3 3 1 1
3 3 3 3 3 4 4 3 3 2 2 3 3 3 3 2 1 2 2 2 2 2 3 4 4 5 5 5 5 4 4 4 4 5 5 4 3 3 3 3 4 4 3
3 3 3 4 3 3 4 3 3 3 3 3 3 3 3 2 2 1 2 2 2 2 3 3 4 4 5 5 5 4 5 5 4 4 5 4 3 3 3 4 3 3 3
3 3 3 3 3 4 4 4 3 3 3 3 3 3 3 3 2 1 2 2 2 3 3 4 4 4 5 5 5 5 5 6 5 5 6 6 5 4 4 4 3 3 3
2 2 3 3 3 4 4 4 4 4 4 3 3 3 3 3 3 2 2 2 2 2 3 4 4 4 4 5 6 6 6 6 7 7 6 7 6 6 5 5 5 4 4
2 3 3 3 3 4 4 4 4 4 4 4 4 3 3 3 3 4 3 2 2 2 3 3 4 5 5 5 6 6 6 7 7 7 8 7 7 7 6 6 6 4 4
2 3 3 4 4 4 4 4 5 4 5 4 4 4 4 3 4 3 4 3 3 3 3 3 4 4 5 5 5 6 6 6 6 6 7 7 8 8 7 7 7 5 5
3 3 4 4 5 5 5 5 5 5 5 5 5 5 4 4 4 4 4 3 3 4 3 3 3 4 4 4 4 5 5 6 6 6 7 7 8 10 8 7 7 7 6
2 3 4 4 5 5 5 5 5 5 5 5 5 5 5 5 5 5 4 4 4 3 3 3 3 3 4 6 7 5 4 5 6 6 6 7 8 10 11 11 11 10 9
2 3 3 4 4 5 5 5 5 5 5 4 5 5 5 5 5 5 4 4 4 4 4 3 3 3 4 6 7 7 4 5 5 6 5 5 6 8 6 9 11 11 13
2 3 3 4 4 4 5 5 5 5 4 4 5 5 5 5 5 5 5 4 3 3 4 4 3 3 4 7 7 7 5 4 5 5 6 6 6 7 7 7 7 7 8
1 2 2 3 4 4 5 4 4 4 4 5 5 5 5 6 5 5 5 4 4 4 4 3 3 3 4 7 7 6 3 3 4 4 5 5 6 10 10 7 7 6 6
2 2 3 3 3 4 4 4 4 4 5 6 6 5 5 5 6 6 6 5 4 4 4 4 3 4 4 6 7 6 2 3 3 3 4 6 7 9 11 7 7 7 6
2 2 3 3 3 4 4 5 5 5 6 6 6 6 5 5 5 5 5 5 5 4 4 4 4 4 5 6 7 6 3 3 3 3 3 3 7 9 10 8 6 8 6
3 3 3 4 4 4 4 5 6 6 6 6 6 6 6 5 5 4 4 4 4 4 4 3 4 3 3 5 6 7 6 5 3 3 2 3 6 8 9 7 7 8 6
3 3 3 4 4 4 4 5 6 6 6 6 7 6 6 5 5 4 4 4 3 3 3 3 3 3 2 3 7 7 7 7 4 3 5 5 6 6 5 7 8 6 3
3 3 3 4 5 4 5 5 6 6 6 6 7 7 6 5 4 3 3 3 3 3 3 3 3 4 3 3 3 3 4 5 5 3 4 5 5 4 4 4 4 3 3
3 3 3 4 5 5 5 6 6 6 6 6 6 6 6 5 4 4 3 4 3 4 4 3 3 3 4 5 7 5 3 3 3 3 1 1 1 2 2 2 2 2 3
3 4 4 5 5 5 5 6 5 5 6 6 6 5 5 5 4 4 4 6 7 9 9 9 7 6 8 10 10 10 10 10 8 4 2 2 3 3 3 2 2 2 3
Wind_Direction
68 60 57 65 63 57 56 54 47 34 44 52 91 139 152 137 120 122 129 135 140 140 135 132 140 139 136 136 135 129 117 106 111 95 65 31 56 77 59 71 81 74 70
57 49 48 57 62 58 56 56 54 37 20 347 339 211 161 155 148 132 138 150 152 155 150 148 152 154 142 140 144 141 136 143 153 141 134 110 11 10 79 90 106 96 75
83 51 41 45 46 42 38 25 9 2 1 360 16 55 69 92 75 61 184 186 177 169 167 160 156 163 163 160 162 159 155 166 194 161 146 156 186 188 332 216 124 119 104
70 57 43 37 29 17 15 22 11 350 347 10 65 182 176 195 221 199 204 213 193 182 170 163 159 164 168 163 169 170 171 163 180 202 201 165 147 155 161 305 262 125 120
77 64 43 34 20 8 4 5 16 354 0 349 304 226 191 208 181 184 187 207 203 183 176 171 165 169 173 172 172 174 181 181 180 181 182 183 150 163 158 205 234 258 235
53 57 44 39 26 17 15 13 12 2 354 345 342 308 207 195 189 193 196 209 215 197 186 182 176 175 179 181 183 181 189 196 187 182 178 171 174 183 166 182 215 227 246
47 37 28 21 18 14 13 12 4 354 355 351 337 330 269 211 203 197 200 206 219 220 199 191 187 184 192 191 190 189 193 197 193 190 192 194 204 182 169 165 208 221 248
50 36 23 20 13 5 8 3 357 353 350 344 333 328 314 246 234 221 215 212 219 223 206 199 193 189 192 196 194 200 203 199 198 198 193 197 210 192 178 176 181 190 235
38 26 23 20 10 3 359 354 353 352 344 341 335 322 325 301 278 258 241 228 227 233 207 203 199 192 191 192 191 202 207 202 204 199 198 200 203 195 186 187 185 176 201
29 17 16 10 5 2 358 357 359 354 349 343 328 325 322 313 292 265 254 251 245 241 213 205 201 198 196 191 191 200 205 204 209 204 201 207 204 197 196 202 203 195 196
21 12 3 3 3 4 4 360 1 354 350 343 336 336 333 330 308 278 265 259 255 240 219 207 205 204 201 197 194 201 204 206 211 212 208 212 205 201 205 199 198 204 197
28 20 9 3 6 5 3 360 353 352 345 337 334 336 339 336 327 300 289 277 256 247 238 212 206 210 212 205 202 205 207 208 212 213 210 215 210 208 204 197 201 206 207
30 19 10 4 3 2 357 353 349 347 343 337 336 335 336 334 327 320 306 295 281 261 254 228 214 213 218 218 213 209 209 212 216 214 211 211 207 211 205 200 201 205 211
24 10 5 0 358 358 355 349 347 346 346 342 338 333 332 328 320 320 319 306 293 274 257 245 232 223 224 227 224 216 211 213 219 221 219 215 211 211 207 205 201 198 199
8 0 358 355 351 349 350 348 343 344 344 342 340 335 333 333 330 325 320 310 294 285 273 256 246 234 228 225 225 222 216 214 218 221 223 224 224 223 220 214 200 194 198
352 355 352 348 344 341 340 339 338 338 339 338 334 336 338 335 330 322 318 312 303 289 282 269 254 245 248 245 243 243 223 218 218 223 227 228 227 230 231 230 224 211 202
349 347 342 337 335 334 333 327 325 329 333 331 330 334 332 328 322 316 317 312 305 301 286 277 264 259 260 261 251 249 238 224 224 222 223 229 225 226 218 224 230 228 227
349 343 338 335 334 332 329 322 323 326 329 330 328 328 327 321 319 315 309 305 300 295 287 272 268 270 270 275 269 262 245 233 229 227 224 219 216 215 213 211 216 221 225
331 323 328 323 327 328 324 321 324 326 328 326 324 323 320 316 314 311 304 296 291 285 281 279 266 265 274 279 278 275 243 242 239 233 229 224 213 221 221 211 210 222 231
1 346 338 333 331 327 327 328 325 326 323 319 317 315 312 306 303 301 299 295 287 283 285 285 276 263 263 274 280 279 246 246 244 240 236 236 226 225 223 212 204 213 221
349 347 335 325 324 330 334 329 327 322 319 317 314 311 308 302 296 295 296 295 292 290 287 284 280 273 274 276 279 281 264 247 243 245 238 237 237 232 231 229 215 222 219
343 343 332 324 327 336 336 327 323 321 321 317 313 310 307 303 303 299 298 298 297 293 287 284 282 273 276 285 287 286 281 270 250 252 252 242 244 243 239 237 228 227 220
328 332 326 322 325 332 333 323 321 324 323 319 314 311 309 304 302 296 294 293 289 287 291 290 291 292 290 285 286 290 295 290 278 260 263 261 252 253 239 237 233 225 199
321 328 326 322 323 326 327 322 322 324 321 316 314 313 311 305 299 293 289 288 286 288 290 291 291 292 291 289 287 284 288 287 284 271 263 264 263 268 253 234 230 213 196
322 323 318 313 314 321 321 322 324 325 320 315 314 313 313 306 299 295 283 284 271 275 280 275 281 285 281 279 282 284 279 269 261 262 236 211 228 228 226 217 204 193 191
320 318 314 312 313 318 317 319 322 322 318 315 317 316 317 312 306 302 304 297 292 296 295 294 291 287 288 293 290 286 286 286 272 267 223 217 218 219 216 215 205 200 198